Vorticity
nan nan nan nan nan nan nan nan nan nan nan nan nan nan nan nan nan nan nan nan nan nan nan nan nan nan nan nan nan nan nan nan nan nan nan nan nan nan nan nan nan nan nan nan nan nan nan nan nan
nan -0 0 5 7 5 6 7 8 7 8 7 5 7 6 7 12 11 9 12 6 5 7 10 8 6 6 5 5 5 5 4 5 6 6 5 5 5 5 5 5 6 7 5 6 6 5 5 nan
nan -4 3 7 5 5 7 7 8 8 4 6 6 7 7 7 11 7 9 10 4 5 9 12 8 6 6 5 5 5 5 5 4 5 6 6 6 6 5 5 6 6 7 8 7 5 5 7 nan
nan 2 6 7 4 7 10 8 7 5 4 8 6 4 9 10 8 11 11 5 5 5 10 11 7 5 5 5 5 5 5 5 5 5 6 5 4 5 5 5 4 5 6 6 7 9 7 5 nan
nan 6 8 5 5 10 11 8 6 4 5 6 7 6 4 11 14 10 6 6 4 5 8 10 8 5 6 6 5 5 5 5 4 5 5 4 4 4 5 4 4 4 5 6 8 8 8 7 nan
nan 7 5 6 7 9 8 8 5 5 9 6 6 8 7 11 8 5 5 6 7 6 7 10 8 6 6 5 5 5 5 4 5 5 5 5 5 5 4 4 4 5 5 6 7 8 9 8 nan
nan 9 8 5 6 7 8 7 7 9 6 8 6 3 7 9 8 7 6 6 7 7 7 7 9 10 7 5 5 5 5 4 5 5 5 5 5 6 4 6 6 5 5 4 6 9 10 9 nan
nan 7 8 7 9 8 8 8 6 5 6 9 8 6 9 13 8 4 5 6 8 9 6 5 8 8 7 10 8 5 5 5 5 5 5 5 6 5 5 5 5 6 5 5 4 5 10 11 nan
nan 7 9 9 6 9 7 7 5 8 8 4 8 14 19 12 4 5 4 5 7 7 5 5 6 7 7 8 9 10 6 7 7 6 5 4 5 7 8 6 5 5 5 6 6 5 6 10 nan
nan 7 8 8 7 9 8 8 7 8 2 3 9 16 15 6 4 3 3 4 5 5 5 5 6 6 6 6 8 8 8 7 7 7 7 8 7 7 8 9 9 7 6 8 7 8 8 6 nan
nan 5 7 6 10 11 7 6 9 5 5 12 11 8 4 3 4 4 6 8 5 3 6 7 7 7 6 6 7 6 7 7 8 8 6 6 6 6 7 8 9 10 9 8 9 9 9 7 nan
nan 10 6 8 10 10 8 4 7 2 11 19 15 7 4 4 4 4 5 7 8 6 6 6 8 7 6 6 8 6 6 7 7 8 7 6 7 7 7 6 8 9 10 8 7 7 8 7 nan
nan 8 6 8 10 9 8 7 8 4 16 17 11 7 5 5 4 6 6 6 7 9 8 8 9 6 6 6 6 7 8 7 7 8 7 7 7 7 7 7 8 9 8 7 7 8 8 8 nan
nan 9 7 10 13 11 8 4 4 13 13 9 7 4 6 6 5 4 7 8 6 7 8 8 7 8 10 7 7 9 8 6 8 8 8 7 7 8 7 7 7 7 8 9 8 7 7 8 nan
nan 10 16 11 10 5 6 5 8 13 10 5 5 5 6 5 8 9 6 8 7 8 10 8 7 6 2 11 9 8 9 9 10 7 8 7 7 8 7 7 8 8 8 9 7 8 8 8 nan
nan 7 9 10 11 10 5 5 14 14 8 5 5 5 6 8 6 6 9 10 10 10 10 1 -1 12 12 8 7 8 7 9 8 9 9 9 9 8 7 8 8 8 8 8 8 9 9 9 nan
nan 8 2 11 10 9 5 11 14 11 6 7 6 7 6 6 6 10 11 10 10 9 5 4 3 5 14 9 8 7 7 7 7 9 9 11 11 9 8 8 9 9 7 7 9 8 8 9 nan
nan 6 11 9 5 10 8 10 12 12 7 7 7 7 8 10 9 9 11 10 10 9 5 3 5 6 9 7 8 8 7 7 9 9 7 10 13 11 9 9 9 9 8 8 8 9 7 7 nan
nan 8 7 7 10 11 7 10 11 10 5 7 7 7 8 9 12 11 11 9 7 9 7 7 7 6 6 7 7 8 9 9 8 8 8 11 11 10 10 9 9 8 8 9 8 9 9 8 nan
nan 8 8 7 11 11 8 8 16 13 9 9 7 6 7 9 8 8 8 9 9 6 6 8 7 7 7 9 9 8 8 8 8 8 11 10 9 10 9 9 8 7 8 9 9 8 8 11 nan
nan 8 10 8 8 9 8 4 10 8 9 14 14 11 11 9 7 7 8 8 9 7 8 6 9 8 8 7 7 9 9 8 8 9 10 9 9 9 9 8 8 8 8 9 10 10 7 8 nan
nan 11 8 9 11 8 8 12 5 10 8 15 15 8 8 7 9 8 9 9 8 7 7 9 10 8 8 8 8 9 9 9 8 9 9 7 7 8 8 9 9 10 9 9 9 9 8 9 nan
nan 8 10 11 8 7 6 15 6 5 11 13 14 11 11 10 13 9 9 8 8 9 7 9 9 8 7 9 8 8 10 9 10 9 8 7 6 7 9 9 10 12 12 11 11 10 9 7 nan
nan 5 6 10 7 6 11 6 7 7 6 8 13 12 11 8 7 12 12 11 9 7 8 9 9 8 8 8 9 7 9 11 9 7 7 9 8 7 8 10 10 10 12 12 12 12 11 9 nan
nan 7 7 6 13 8 6 10 9 6 10 9 11 12 9 11 9 8 7 8 9 8 8 8 9 7 7 6 7 9 9 9 8 8 7 8 9 7 7 9 10 11 10 11 12 14 13 11 nan
nan 11 9 11 6 8 8 7 10 8 8 18 17 13 10 8 8 9 7 7 7 9 9 8 8 8 8 6 7 9 9 8 8 9 9 8 9 8 9 9 9 9 11 11 11 11 12 14 nan
nan 9 10 5 8 12 8 4 8 10 7 16 18 16 8 7 10 8 6 8 10 10 8 9 7 9 10 11 9 8 8 9 9 8 9 9 9 8 9 10 9 9 10 12 12 10 10 12 nan
nan 7 6 10 14 7 9 12 10 6 8 7 8 8 11 12 10 8 11 9 9 10 10 10 11 12 11 11 8 10 9 8 9 8 8 9 9 9 9 10 9 9 10 11 11 11 11 11 nan
nan 6 10 15 9 11 9 11 16 8 7 5 7 9 12 11 10 11 9 9 12 10 10 10 10 10 9 10 13 11 8 8 9 9 9 9 9 8 9 9 9 9 10 10 11 11 11 11 nan
nan nan nan nan nan nan nan nan nan nan nan nan nan nan nan nan nan nan nan nan nan nan nan nan nan nan nan nan nan nan nan nan nan nan nan nan nan nan nan nan nan nan nan nan nan nan nan nan nan
CAPE
1224 818 535 909 11 0 0 0 0 0 54 199 488 342 434 912 420 49 452 930 1346 1771 2162 2685 3059 2865 2217 2248 2346 2267 2546 2429 2635 2980 2931 2946 3085 2724 2412 2380 2167 2000 1771 1787 1945 1720 1678 1720 1223
936 969 995 838 0 0 0 0 0 25 296 290 354 417 737 1095 1110 845 795 1425 1655 2002 2443 2596 3263 3096 2548 2503 2543 2536 2356 2232 2418 2545 2844 2734 2678 2556 2402 2323 2287 2132 1885 1988 1697 1829 1617 1639 1469
867 724 703 41 0 0 0 0 147 281 439 394 499 645 840 890 853 709 1089 1634 1993 2220 2329 2687 3433 3193 2482 2426 2818 2853 2698 2281 2296 2321 2503 2550 2452 2495 2459 2332 2472 2304 2176 2116 2122 1752 1578 1805 1779
636 99 0 0 0 0 0 14 308 409 354 516 613 602 856 1156 945 1055 1629 1798 2006 2333 2455 3226 3569 2787 2560 2461 2570 2564 2512 2482 2356 2217 2298 2328 2386 2292 2231 2378 2316 2277 2317 2107 1939 1647 1423 1955 1765
0 0 0 0 0 0 1 55 229 247 605 643 589 672 738 1196 1241 1466 1668 1702 1998 2237 2657 2972 3433 3285 2943 2532 2567 2557 2517 2396 2325 2222 2246 2290 2273 2207 2205 2288 2224 2022 2027 2033 1743 1836 1353 1939 1810
0 0 0 0 0 0 47 88 156 606 708 713 715 645 823 1129 1275 1396 1527 1689 2045 2429 2606 2754 3140 3264 2788 2590 2549 2536 2462 2381 2369 2442 2260 2283 2331 2473 2269 2196 2027 1950 1998 2057 1845 1611 1403 1497 1985
0 0 0 0 4 17 70 55 439 498 628 656 681 766 904 1037 1043 1303 1475 1980 2205 2427 2507 2573 2618 2490 2631 2536 2503 2492 2462 2392 2369 2784 2219 2346 2588 2565 2337 2270 2033 1874 1816 1922 1682 1570 1638 1206 1719
0 0 1 3 0 0 0 282 483 533 812 755 800 812 923 957 1103 1302 1429 1676 1963 2208 2291 2289 2342 2131 2118 2226 2637 2479 2430 2517 2516 2279 2117 2273 2381 2226 2059 2355 2383 1880 1697 1787 982 1144 1354 1466 1597
0 0 3 0 0 0 45 558 668 724 749 860 790 867 817 1032 1391 1258 1286 1446 1656 1630 1437 1924 1827 1844 1926 2104 2386 3056 2706 2573 2254 2008 2213 2361 1723 1682 2174 2339 2290 2119 1823 1646 1576 1362 1360 1484 1587
0 0 0 0 0 0 75 614 791 780 797 833 1335 932 1226 1498 1341 1179 1117 1167 1262 1408 1555 1602 1544 1642 1648 2099 1913 2080 1883 1740 1515 1873 1940 1759 1547 1506 2075 2267 2227 1912 2011 1736 1655 1655 1605 1316 1149
0 0 0 0 0 52 451 788 641 775 903 817 1211 1243 1510 1425 1257 1204 1134 964 1074 1216 1351 1338 1326 1366 1473 1845 1337 1648 1388 1297 1362 1481 1297 1149 1273 1228 1597 1456 1749 1439 1769 1810 1718 1673 1743 1179 1007
0 0 0 0 0 26 560 445 983 880 613 876 1392 1450 1456 1373 1235 1225 1212 993 777 816 989 1095 1064 1030 1060 1179 1202 1289 1167 1083 1146 1098 1024 907 860 917 936 920 643 800 1311 1605 1262 1385 1389 1235 959
0 0 0 0 0 0 139 364 799 797 900 1235 1683 1577 1463 1350 1227 1123 1099 903 766 658 615 821 797 804 941 1136 1156 1148 1105 1251 1134 1034 1024 953 810 807 739 747 651 777 712 1119 1164 1075 1102 1151 828
0 0 0 0 0 1 137 172 518 700 1037 1460 1727 1587 1509 1406 1287 1132 1012 976 908 724 556 824 657 651 953 1121 1047 1124 1009 962 911 965 974 821 749 581 516 491 525 532 537 459 836 829 972 928 897
0 0 0 0 0 1 159 297 367 854 1120 1314 1525 1520 1547 1483 1389 1278 1221 1153 1092 816 941 759 0 6 522 364 244 160 112 233 540 743 818 767 747 607 517 430 331 218 213 364 436 419 435 518 432
0 0 0 0 0 0 123 58 352 1077 1190 1253 1287 1295 1383 1282 1354 1298 1231 1236 1196 896 711 219 0 0 203 78 29 19 1 0 36 62 107 260 478 554 418 445 327 98 79 25 164 278 297 240 230
0 0 0 0 0 0 4 0 40 1188 1183 1195 1276 1211 1293 1237 1107 1048 864 1028 1230 801 776 402 0 0 514 95 13 6 2 0 9 90 214 452 604 507 404 365 466 221 280 125 34 96 73 98 80
0 0 0 0 0 0 0 0 233 1211 1274 1243 1188 1150 1180 1190 1197 968 978 1085 1170 756 776 497 0 0 122 0 0 0 0 0 27 109 218 417 784 924 514 342 245 194 163 181 91 79 10 11 13
0 0 0 0 0 0 0 0 0 908 1239 1244 1183 1218 1244 1207 1137 1059 1225 1129 951 735 803 664 151 62 2 0 0 0 0 0 14 29 59 296 547 449 277 243 239 177 215 189 51 0 1 1 0
0 0 0 0 0 0 0 0 0 890 1192 1240 1208 1148 1235 1154 1190 1423 1032 963 799 754 731 503 259 33 0 0 0 0 12 11 5 23 76 288 427 325 259 184 121 127 127 79 65 2 3 10 5
0 0 0 0 0 0 0 0 0 3 32 152 1261 1151 1177 1212 1261 1298 1200 907 862 798 520 331 86 0 0 0 0 4 12 21 101 79 48 117 147 109 51 49 14 0 7 52 9 6 25 41 6
0 0 0 0 0 0 0 0 0 0 0 331 882 1301 1298 1181 1177 1202 1258 893 960 882 442 250 6 0 0 0 0 0 16 59 16 38 35 16 1 0 0 0 0 0 0 3 1 0 1 1 1
0 0 0 0 0 0 0 0 0 0 105 748 1115 1111 1181 1190 1260 1385 1538 982 1017 936 781 461 12 0 0 0 0 0 2 46 55 41 21 0 0 0 0 0 0 0 1 5 1 1 11 2 0
0 0 0 0 0 0 0 0 0 0 0 0 1310 1232 1286 1345 1548 1676 1761 1170 1050 971 777 341 8 0 0 12 17 10 401 148 82 18 0 0 0 0 0 0 1 2 1 1 15 21 12 17 1
0 0 0 0 0 0 0 0 0 0 0 0 350 1512 1518 1575 1563 1879 1934 1488 1031 853 496 128 2 0 4 135 211 404 473 95 49 0 0 0 0 0 0 0 2 1 4 1 3 11 27 28 11
0 0 0 0 0 0 0 0 0 0 0 195 129 1390 1755 1625 1465 1957 1971 1685 1150 782 388 146 7 0 0 88 311 526 191 76 1 0 0 0 0 0 0 0 1 1 2 3 3 4 5 1 1
0 0 0 0 0 0 0 0 0 1 358 351 1280 1891 1957 1704 1468 1897 1948 1807 1347 1050 686 511 94 234 162 220 511 275 119 45 0 0 0 0 0 0 0 0 0 0 1 1 2 3 4 3 2
0 0 0 0 0 0 0 0 0 93 329 150 1399 1313 1471 1460 1418 1578 1742 1773 1857 1564 1448 1363 976 1030 850 508 213 121 107 10 0 0 0 0 0 0 0 0 0 0 0 0 1 1 1 3 4
0 0 0 0 0 0 0 0 0 3 0 68 476 650 915 1311 1422 1314 1341 1362 1765 1516 1512 1385 914 552 230 193 101 106 70 0 0 0 0 0 0 0 0 0 0 0 0 2 2 3 2 1 1
0 0 0 0 0 0 0 0 0 0 0 4 78 223 142 341 1060 1034 946 1063 1575 1516 1283 608 807 460 180 124 68 92 15 0 0 0 0 0 0 0 0 0 0 0 0 0 1 1 2 0 0